Wind_Speed
5 5 5 6 6 7 7 8 9 9 9 9 9 9 9 10 11 11 13 14 16 17 18 17 15 15 15 15 13 15 14 12 12 13 12 12 14 15 15 17 31 47 34 35 35 34 31
5 5 6 6 5 6 6 7 8 8 8 9 9 9 10 10 10 10 10 11 13 15 17 18 17 16 18 18 17 16 16 15 14 13 13 15 18 18 19 20 26 49 45 42 41 36 34
6 6 7 7 6 6 7 7 7 7 8 9 9 10 10 11 11 12 12 12 11 12 14 16 18 19 19 14 18 18 18 17 16 15 17 19 17 17 18 22 25 47 51 48 42 40 40
6 7 7 7 7 7 7 7 7 7 7 7 8 9 10 11 11 13 12 13 14 13 11 14 16 19 18 17 23 19 20 18 18 18 20 19 17 17 17 18 19 38 46 46 44 43 42
7 7 7 7 7 7 7 7 7 7 7 6 7 8 9 10 11 11 12 13 13 14 14 13 16 17 16 19 22 18 22 21 20 20 21 20 18 19 18 18 19 22 28 46 44 44 46
6 7 7 7 6 5 6 5 5 6 6 6 6 7 8 8 9 9 11 12 12 11 13 15 15 18 18 18 20 21 21 22 23 23 23 22 20 20 21 22 19 19 21 23 29 42 47
7 8 8 8 6 5 5 4 4 5 5 5 5 5 5 6 7 8 9 9 9 9 10 10 13 17 19 20 22 24 25 25 25 25 26 26 23 19 22 27 26 28 25 25 24 34 34
8 9 8 8 6 5 5 4 5 5 5 5 5 6 6 6 6 6 5 5 6 9 12 9 11 15 10 14 20 23 25 26 26 26 27 26 20 26 30 30 29 31 30 27 29 33 38
10 9 9 9 8 6 6 4 4 3 5 5 6 8 8 9 10 9 9 8 6 7 10 9 13 15 11 11 13 18 21 24 26 27 29 28 25 31 32 33 33 32 33 27 33 36 39
11 11 11 10 10 8 7 7 6 6 6 7 6 8 9 10 11 12 12 11 11 12 13 16 16 15 16 15 19 19 20 20 22 25 29 25 26 29 32 32 34 35 32 32 36 45 44
13 13 12 12 11 11 9 10 11 11 12 12 13 12 13 13 14 14 14 14 15 16 17 19 18 17 17 20 22 23 22 21 22 25 28 20 27 32 34 26 36 32 37 40 40 45 50
14 14 14 13 12 11 11 11 14 16 17 17 16 16 16 16 16 15 15 16 17 18 20 20 19 20 19 22 25 24 23 25 28 30 32 22 27 32 31 30 33 31 37 42 44 46 50
16 16 14 13 13 13 14 15 16 18 19 18 16 16 16 15 14 15 15 17 20 20 20 21 20 20 20 20 21 21 23 29 32 35 35 33 32 33 36 36 35 36 34 39 46 48 51
17 17 16 15 16 16 17 18 19 20 18 15 15 14 13 13 14 15 17 19 20 17 18 18 18 19 20 22 23 24 27 30 34 37 35 37 37 35 35 40 38 38 40 45 49 47 48
16 17 17 17 18 19 19 19 18 18 15 11 14 13 14 14 14 16 17 16 16 16 17 19 20 21 22 23 26 29 29 32 35 37 38 41 40 30 38 40 42 40 46 44 49 51 53
15 17 17 19 19 20 19 15 15 14 12 11 14 14 14 14 15 17 18 15 15 15 15 14 18 20 22 23 28 31 35 37 39 40 41 43 45 36 32 37 38 40 39 47 52 56 57
16 17 16 17 17 17 16 15 13 13 11 10 12 14 12 14 15 17 19 16 15 15 16 17 19 21 22 24 27 29 34 37 37 40 43 45 49 44 40 38 37 37 43 43 50 57 62
17 18 18 18 16 14 13 14 13 11 10 11 10 12 13 14 15 16 19 18 18 20 22 25 27 30 31 32 35 37 38 41 42 43 44 48 51 56 48 42 41 43 46 48 53 56 59
16 16 16 15 15 13 12 12 11 11 11 11 11 12 15 15 16 17 20 22 23 24 27 30 33 35 38 40 43 45 47 49 50 52 53 52 56 59 59 53 52 51 52 54 55 57 55
16 15 14 14 13 13 13 13 12 12 12 12 12 12 15 17 19 23 25 27 29 31 33 36 39 41 44 47 50 54 56 57 59 61 63 63 63 65 68 67 65 64 61 62 62 62 64
14 14 14 12 12 14 15 13 13 12 12 13 15 16 18 21 25 28 30 33 35 39 42 45 46 50 54 57 60 63 65 67 69 73 74 74 74 75 75 76 78 75 70 65 68 66 67
13 13 10 12 14 14 14 13 12 12 15 18 20 22 24 26 28 31 35 38 42 44 46 50 54 58 61 65 68 70 72 75 76 79 80 82 84 85 83 83 86 85 84 76 73 71 73
13 9 12 13 13 12 12 12 14 16 18 21 24 27 30 32 35 39 41 43 46 51 54 58 62 62 62 59 58 58 60 63 69 72 75 76 79 81 88 87 91 92 90 89 84 79 78
9 11 14 13 12 13 14 15 17 19 21 23 24 28 32 37 40 43 47 51 55 59 60 56 49 44 34 27 30 34 39 44 47 45 44 39 34 34 45 57 63 70 80 85 87 86 85
11 14 16 15 14 16 17 18 19 22 24 26 29 34 38 41 45 49 54 58 59 49 35 26 14 15 21 26 27 30 34 39 27 23 12 13 19 24 23 16 14 19 30 48 66 76 74
12 15 15 15 16 17 20 21 22 23 27 32 36 39 43 48 51 55 54 43 27 14 15 15 17 20 26 30 31 32 34 35 15 13 5 13 18 16 16 16 15 14 16 22 24 41 49
14 16 16 16 18 21 21 22 26 31 35 37 41 44 48 50 48 42 25 9 6 11 16 20 22 23 24 31 29 33 27 27 15 4 5 7 7 5 9 18 14 11 8 13 18 14 21
16 17 17 19 22 23 25 30 34 37 40 43 46 48 47 40 28 11 2 6 9 14 17 18 18 20 22 22 23 31 19 17 11 2 9 12 5 7 18 17 14 8 6 14 12 13 11
19 18 19 21 23 27 31 34 37 40 42 45 47 45 32 16 5 3 6 7 10 10 15 14 14 13 13 19 21 25 18 14 6 7 11 10 12 15 13 17 19 18 19 16 19 18 11
Wind_Direction
247 246 239 245 241 242 237 239 240 237 235 234 233 233 235 238 238 240 241 240 239 239 237 233 231 229 229 233 230 233 232 233 232 234 237 229 218 214 211 195 191 191 190 198 206 214 227
254 262 253 249 249 250 248 245 247 246 243 245 244 242 240 241 242 242 245 247 246 244 241 236 233 233 232 232 233 230 231 229 230 231 233 229 220 212 211 207 198 193 200 207 215 213 220
268 263 264 260 255 256 252 251 248 249 248 247 246 247 248 248 249 251 251 251 251 252 246 239 234 232 234 232 238 232 228 228 230 233 233 234 233 230 224 218 204 201 207 216 217 222 229
272 267 265 260 258 252 249 248 251 245 243 245 248 248 248 251 255 254 257 256 252 249 249 243 236 234 232 221 230 227 232 233 231 231 236 239 236 239 236 234 223 208 217 222 222 229 237
274 268 264 259 254 250 249 245 246 249 245 243 251 255 255 254 254 259 261 257 252 247 243 240 237 236 226 228 234 231 228 229 234 235 240 245 243 242 238 235 228 218 223 230 234 238 239
270 269 259 253 244 244 235 234 241 247 247 250 251 253 258 261 261 259 255 253 254 251 244 238 239 239 236 231 237 236 231 235 236 239 241 240 238 240 241 239 236 233 222 217 220 233 240
262 256 255 243 230 226 226 213 228 236 238 242 251 261 270 272 270 263 261 260 254 246 246 241 237 238 237 233 233 239 241 236 241 246 244 241 236 239 239 238 234 232 222 220 215 220 225
260 250 245 241 228 220 226 217 223 233 242 250 256 260 263 268 272 268 268 263 255 247 256 241 239 245 236 244 241 237 242 243 244 245 247 247 242 239 237 238 236 238 235 224 215 215 228
253 243 238 234 234 220 231 234 236 248 263 262 263 262 260 261 261 260 258 255 250 242 254 245 239 251 242 228 234 247 242 244 243 244 247 246 240 242 244 242 238 236 240 226 217 207 225
249 242 237 238 244 239 241 253 264 274 279 280 277 277 271 267 264 263 262 258 256 248 242 252 252 250 257 244 242 247 250 252 249 246 245 244 244 244 246 242 242 237 238 229 223 216 227
252 246 241 242 244 245 246 264 279 287 291 288 285 277 274 271 268 263 263 260 256 254 253 253 257 258 255 253 250 244 246 252 253 252 254 243 239 243 243 243 246 241 235 233 228 228 231
255 250 246 243 241 242 251 264 281 290 293 289 284 277 269 266 263 262 263 261 261 258 256 259 263 268 262 261 265 263 251 245 244 247 250 240 245 247 251 244 243 248 240 244 243 238 241
256 255 249 244 245 250 263 272 281 287 289 281 276 275 271 269 268 266 263 264 265 266 276 278 278 275 269 263 267 264 262 257 255 255 254 248 238 240 245 244 242 247 250 249 250 247 253
256 255 250 251 256 263 267 271 279 282 281 279 278 275 275 274 278 276 279 278 281 290 289 287 281 273 269 267 268 265 264 263 266 263 257 255 248 250 246 246 239 241 244 248 254 253 257
259 255 254 257 263 268 269 272 273 272 272 273 277 281 285 289 289 289 287 294 295 293 285 283 278 276 276 278 279 278 274 272 270 268 267 266 259 249 253 256 255 244 240 246 254 258 258
265 262 262 262 266 272 272 268 265 266 265 274 278 281 286 287 288 287 289 293 287 283 278 273 275 278 279 276 272 274 274 273 276 275 276 275 269 263 253 251 248 261 253 242 243 251 254
278 276 275 275 275 273 270 266 257 261 271 276 277 284 287 290 293 293 293 290 285 283 280 279 277 278 275 273 273 270 273 277 275 275 275 277 277 269 266 257 253 247 254 254 250 247 252
286 285 283 280 280 277 274 270 264 271 275 273 274 285 291 292 292 291 290 290 288 290 290 289 288 287 286 283 280 277 274 273 274 272 269 271 274 276 271 268 263 256 251 251 249 250 252
289 289 287 286 282 281 278 277 278 277 274 275 282 290 298 300 303 300 298 297 295 294 295 295 295 293 290 287 283 281 279 277 274 272 269 267 267 272 272 269 261 257 256 252 251 252 256
290 292 288 286 281 282 281 279 280 276 273 274 281 285 295 300 301 299 297 298 296 295 297 299 297 295 292 288 284 281 279 277 275 273 271 268 264 262 265 264 261 258 254 253 252 251 250
295 295 295 287 285 281 285 290 284 276 273 275 280 287 293 296 300 303 303 300 299 300 299 297 294 292 290 287 285 283 280 277 275 273 271 268 266 262 259 259 261 257 250 245 249 251 251
300 298 293 298 296 295 290 282 277 275 285 285 282 292 296 297 298 300 301 301 301 300 300 299 298 296 293 289 285 280 277 273 270 268 265 264 262 260 256 255 254 255 256 247 243 244 249
299 298 314 310 302 293 289 285 287 289 285 282 285 292 295 297 300 301 302 302 301 301 298 298 296 293 288 285 284 283 283 280 277 271 270 269 267 265 257 257 253 251 251 252 249 242 243
286 310 320 309 300 301 302 294 285 283 286 290 294 298 299 300 302 305 306 305 304 302 300 299 293 291 297 302 317 315 317 309 296 287 282 285 291 293 284 276 270 264 260 255 253 253 247
296 299 310 316 313 306 301 294 290 295 302 304 303 304 304 307 310 309 310 308 308 306 298 296 318 331 326 321 316 318 311 324 300 295 315 342 334 326 328 313 298 281 268 260 257 255 255
306 315 313 310 312 311 307 307 307 308 309 310 311 313 315 315 314 312 313 312 309 305 319 322 323 321 327 330 324 321 324 335 315 266 249 329 330 331 333 328 330 338 319 296 285 262 251
317 317 310 310 313 315 314 313 316 317 319 319 320 318 317 318 319 317 316 319 321 319 315 313 309 310 320 338 346 333 331 344 357 243 226 4 338 16 346 9 1 360 321 337 304 316 260
315 311 312 313 318 319 319 322 323 323 323 321 319 321 322 321 320 303 270 355 342 327 324 323 314 302 310 336 345 352 346 354 10 183 334 337 347 330 16 30 6 359 329 323 305 317 229
318 314 317 321 320 321 324 325 322 323 321 320 322 324 323 312 345 68 359 3 335 355 356 351 341 330 341 344 353 2 1 15 7 339 344 343 12 16 25 24 16 355 348 318 318 328 222
Height
5847 5847 5847 5848 5848 5848 5848 5849 5850 5851 5851 5851 5852 5852 5853 5854 5854 5855 5856 5857 5858 5859 5860 5861 5863 5863 5864 5865 5866 5866 5868 5868 5869 5870 5872 5874 5876 5877 5878 5880 5882 5885 5889 5890 5888 5890 5889
5846 5846 5846 5846 5847 5847 5847 5848 5849 5849 5849 5849 5849 5850 5850 5851 5852 5852 5853 5853 5854 5855 5856 5858 5859 5860 5861 5862 5863 5864 5865 5866 5867 5868 5870 5871 5872 5874 5875 5877 5879 5883 5882 5884 5885 5889 5890
5845 5845 5845 5845 5845 5845 5845 5846 5846 5847 5847 5847 5847 5847 5848 5848 5848 5849 5850 5851 5851 5852 5853 5854 5855 5856 5857 5861 5860 5861 5862 5863 5864 5866 5866 5867 5870 5872 5874 5875 5878 5877 5878 5880 5884 5886 5887
5844 5844 5843 5843 5844 5843 5844 5844 5844 5844 5844 5844 5844 5845 5845 5845 5846 5846 5846 5847 5848 5849 5850 5851 5851 5852 5855 5856 5854 5857 5859 5860 5861 5862 5863 5865 5867 5869 5872 5874 5877 5877 5877 5878 5883 5883 5884
5843 5843 5842 5842 5842 5842 5842 5842 5842 5842 5842 5842 5842 5842 5842 5842 5843 5842 5843 5844 5845 5845 5846 5847 5847 5848 5851 5851 5852 5855 5855 5856 5857 5858 5859 5861 5864 5866 5868 5870 5873 5875 5878 5879 5881 5880 5880
5841 5842 5841 5841 5840 5840 5840 5840 5840 5840 5840 5839 5839 5840 5839 5839 5839 5840 5841 5841 5842 5843 5843 5843 5844 5846 5848 5849 5849 5850 5852 5852 5853 5854 5856 5858 5860 5862 5864 5865 5868 5869 5871 5873 5876 5877 5873
5840 5840 5840 5840 5839 5839 5839 5838 5838 5839 5838 5838 5838 5838 5838 5837 5838 5838 5839 5839 5841 5841 5840 5841 5841 5841 5841 5844 5845 5845 5846 5849 5849 5850 5851 5853 5857 5860 5857 5857 5858 5859 5862 5863 5868 5866 5866
5839 5839 5839 5839 5838 5838 5839 5838 5838 5837 5837 5836 5836 5836 5836 5836 5837 5836 5836 5837 5837 5838 5838 5838 5838 5836 5839 5839 5840 5841 5841 5843 5844 5845 5845 5849 5852 5849 5848 5851 5853 5853 5855 5859 5861 5862 5859
5837 5837 5837 5838 5838 5837 5838 5837 5837 5836 5836 5835 5835 5835 5835 5834 5834 5834 5834 5835 5835 5835 5835 5835 5834 5834 5836 5837 5835 5834 5836 5836 5837 5838 5839 5841 5845 5842 5844 5844 5847 5848 5849 5856 5857 5855 5851
5835 5835 5835 5835 5836 5836 5836 5836 5836 5835 5835 5834 5833 5833 5832 5832 5833 5831 5831 5832 5832 5832 5832 5831 5830 5831 5831 5832 5831 5831 5830 5831 5833 5833 5831 5837 5838 5837 5836 5838 5840 5841 5846 5847 5848 5847 5845
5833 5833 5833 5833 5833 5834 5833 5834 5834 5833 5832 5831 5830 5830 5829 5829 5828 5828 5828 5827 5827 5827 5827 5827 5827 5827 5827 5827 5825 5825 5826 5826 5827 5825 5826 5833 5831 5828 5828 5835 5830 5836 5836 5834 5835 5835 5836
5831 5830 5830 5831 5831 5831 5831 5830 5831 5830 5829 5828 5827 5826 5826 5825 5824 5824 5823 5823 5822 5823 5822 5822 5823 5823 5823 5821 5818 5819 5820 5820 5818 5817 5816 5825 5824 5823 5826 5827 5825 5829 5830 5828 5828 5827 5824
5828 5828 5827 5828 5828 5828 5828 5827 5826 5825 5825 5823 5822 5822 5821 5821 5821 5820 5819 5819 5819 5817 5819 5819 5819 5818 5818 5818 5815 5813 5812 5811 5811 5811 5812 5814 5816 5816 5816 5818 5820 5819 5822 5821 5819 5818 5815
5824 5824 5824 5824 5825 5824 5824 5823 5822 5820 5819 5819 5818 5817 5817 5817 5816 5815 5816 5816 5815 5815 5813 5813 5813 5811 5810 5810 5809 5808 5806 5804 5803 5802 5804 5805 5811 5812 5811 5809 5812 5812 5812 5811 5807 5811 5811
5821 5820 5821 5820 5820 5820 5819 5817 5817 5815 5815 5814 5813 5814 5813 5813 5813 5812 5812 5812 5810 5810 5809 5807 5805 5804 5805 5804 5802 5800 5799 5797 5795 5794 5796 5794 5796 5806 5805 5804 5802 5806 5801 5804 5798 5798 5796
5817 5817 5816 5816 5815 5814 5814 5813 5812 5811 5812 5811 5809 5809 5809 5809 5808 5807 5807 5807 5806 5804 5803 5802 5801 5800 5798 5798 5795 5794 5790 5789 5788 5786 5785 5783 5781 5792 5795 5794 5795 5792 5798 5793 5789 5786 5784
5814 5813 5812 5812 5811 5810 5809 5809 5809 5808 5808 5807 5807 5805 5806 5805 5804 5803 5801 5802 5801 5799 5798 5797 5796 5794 5793 5791 5789 5788 5783 5781 5780 5778 5775 5772 5768 5776 5780 5784 5785 5785 5780 5781 5780 5777 5771
5810 5809 5808 5807 5807 5806 5805 5805 5805 5804 5803 5804 5803 5802 5802 5800 5800 5798 5796 5795 5796 5793 5792 5789 5788 5785 5784 5783 5779 5777 5776 5772 5770 5769 5767 5763 5758 5753 5762 5769 5771 5769 5767 5766 5764 5764 5764
5807 5806 5804 5803 5803 5802 5802 5801 5800 5800 5799 5799 5798 5798 5796 5795 5794 5792 5790 5789 5787 5786 5783 5780 5778 5776 5772 5770 5767 5763 5760 5758 5757 5754 5752 5753 5749 5743 5744 5751 5752 5752 5749 5748 5749 5749 5753
5804 5802 5801 5800 5799 5798 5798 5798 5796 5795 5795 5795 5795 5794 5792 5790 5788 5786 5784 5782 5779 5776 5774 5771 5766 5763 5760 5756 5752 5747 5744 5740 5737 5733 5732 5731 5733 5730 5726 5728 5728 5728 5730 5730 5730 5732 5732
5800 5799 5797 5796 5795 5795 5794 5792 5791 5791 5790 5791 5790 5789 5787 5785 5781 5778 5776 5773 5769 5765 5761 5757 5754 5749 5744 5740 5735 5730 5726 5720 5718 5711 5709 5706 5707 5705 5706 5706 5701 5703 5709 5710 5709 5712 5713
5797 5795 5794 5793 5792 5790 5789 5788 5787 5787 5785 5786 5785 5783 5780 5778 5775 5772 5768 5763 5757 5753 5750 5743 5736 5731 5725 5719 5713 5707 5700 5692 5692 5686 5680 5676 5674 5672 5680 5680 5675 5678 5678 5689 5694 5696 5696
5793 5792 5791 5790 5788 5786 5785 5784 5783 5782 5782 5781 5779 5776 5773 5769 5765 5761 5757 5751 5745 5739 5735 5728 5721 5714 5705 5698 5691 5682 5673 5667 5659 5659 5654 5650 5645 5640 5651 5642 5644 5651 5654 5659 5664 5672 5675
5790 5789 5788 5786 5784 5782 5781 5780 5780 5778 5776 5775 5771 5768 5764 5758 5753 5748 5742 5736 5729 5723 5717 5710 5702 5695 5691 5684 5679 5671 5661 5651 5641 5638 5636 5633 5629 5625 5624 5620 5625 5629 5625 5630 5633 5640 5649
5787 5786 5784 5782 5780 5779 5777 5776 5774 5772 5769 5765 5761 5757 5751 5745 5740 5733 5726 5719 5711 5705 5699 5694 5691 5686 5682 5677 5672 5666 5658 5645 5631 5629 5630 5629 5625 5620 5617 5614 5614 5612 5607 5609 5608 5618 5626
5784 5782 5780 5779 5777 5775 5772 5769 5767 5764 5761 5756 5750 5745 5739 5732 5725 5718 5711 5704 5699 5693 5690 5688 5685 5680 5676 5670 5663 5654 5646 5637 5632 5629 5628 5628 5624 5620 5617 5613 5611 5609 5605 5601 5600 5603 5608
5781 5779 5777 5775 5773 5770 5767 5764 5760 5756 5751 5746 5739 5733 5726 5718 5711 5704 5700 5697 5694 5691 5687 5683 5680 5676 5672 5666 5659 5650 5641 5634 5629 5627 5628 5627 5623 5621 5617 5613 5610 5607 5605 5602 5599 5599 5597
5778 5775 5773 5771 5768 5764 5760 5756 5752 5747 5742 5736 5728 5721 5714 5706 5700 5697 5696 5695 5693 5689 5685 5681 5677 5673 5668 5664 5657 5648 5640 5633 5629 5628 5628 5626 5624 5621 5618 5614 5611 5607 5605 5601 5598 5595 5591
5774 5772 5769 5766 5762 5759 5755 5750 5744 5738 5733 5725 5717 5710 5703 5699 5697 5695 5695 5694 5691 5688 5682 5676 5672 5668 5665 5661 5655 5647 5639 5634 5632 5630 5628 5627 5624 5622 5620 5617 5612 5608 5604 5601 5598 5594 5592